sat.trackr.live / text

‹ back to catalog

UNKNOWN

NORAD 87590

UNKNOWN UNKNOWN UNKNOWN

§ Identity

Operator
Country
Launch date
Launch site
Launch vehicle
Mass (kg)
RCS (m²)

External: N2YO · Heavens-Above

§ Orbital elements

Epoch: 2026-09-09T01:19:20.144064Z

Period
102.08 min
Inclination
98.7596°
Eccentricity
0.0025697
Mean motion
14.10635354 rev/d
Perigee alt
838.6 km
Apogee alt
875.8 km
Semi-major
7,235.3 km
B*
2.3003e-4
RAAN
287.6528°
Arg perigee
236.7823°
Mean anomaly
153.4340°
Rev number
19,235

§ Raw data

UNKNOWN1 87590U          26252.05509426  .00000369  00000+0  23003-3 0  99952 87590  98.7596 287.6528 0025697 236.7823 153.4340 14.10635354192355

JSON: /api/v1/satellites/87590 · /tle

For live sub-satellite position, see the globe view (requires WebGL).

§ Visibility from observer

Set your observer location to see the next 7 days of passes ≥ 10°. The values pass through the URL so the page stays shareable.

No JS? Fill the form by hand. The geolocation button needs JavaScript.